Orbital Elements at Epoch 2459200.5 (2020-Dec-17.0) TDB
Reference: JPL 21 (heliocentric ecliptic J2000)
Element | Value | Uncertainty (1-sigma) | Units |
e | .01861099992704304 | 3.7593e-08 | |
a | 2.690742017737893 | 1.6351e-08 | au |
q | 2.640664618242082 | 1.0697e-07 | au |
i | 3.477421730968495 | 6.2878e-06 | deg |
node | 191.1770448155834 | 6.0971e-05 | deg |
peri | 303.266359525815 | 0.00017852 | deg |
M | 258.1184634300381 | 0.00016885 | deg |
tp | 2459656.746455292698 (2022-Mar-18.24645529) | 0.0007566 | TDB |
period | 1612.153972497088 4.41 | 1.4695e-05 4.023e-08 | d yr |
n | .223303732857719 | 2.0354e-09 | deg/d |
Q | 2.740819417233705 | 1.6655e-08 | au |
|
| | Orbit Determination Parameters
Additional Information
|